Tracking 30995 objects as of 5-Jul-2025
HD Live streaming from Space Station
objects crossing your sky now

DELTA 1 DEB

Track DELTA 1 DEB now!
10-day predictions


NORAD ID: 12234
Int'l Code: 1978-026CB
Perigee: 867.8 km
Apogee: 908.7 km
Inclination: 99.2 °
Period: 102.6 minutes
Semi major axis: 7259 km
RCS: 0.0288 m2 (small)
Launch date: March 5, 1978
Source: United States (US)
Launch site: AIR FORCE WESTERN TEST RANGE (AFWTR)

Note: This is SATELLITE DEBRIS
Your satellite tracking list
Your tracking list is empty




NASA's NSSDC Master Catalog

Two Line Element Set (TLE):
1 12234U 78026CB  25186.28140144 -.00000134  00000-0 -55293-4 0  9999
2 12234  99.2462 190.8581 0028153 343.3962  85.6387 14.03662199273232
Source of the keplerian elements: AFSPC